AirNav   Air Wisconsin pilot careers
 
 1321 users online  

D37 Warren Municipal Airport
Warren, Minnesota, USA

GOING TO WARREN?


FAA INFORMATION EFFECTIVE 06 DECEMBER 2018

Location

FAA Identifier: D37
Lat/Long: 48-11-28.2000N / 096-42-40.7000W
48-11.470000N / 096-42.678333W
48.1911667 / -96.7113056
(estimated)
Elevation: 888.2 ft. / 270.7 m (surveyed)
Variation: 05E (2000)
From city: 2 miles E of WARREN, MN
Time zone: UTC -6 (UTC -5 during Daylight Saving Time)
Zip code: 56762

Airport Operations

Airport use: Open to the public
Activation date: 09/1948
Control tower: no
ARTCC: MINNEAPOLIS CENTER
FSS: PRINCETON FLIGHT SERVICE STATION
NOTAMs facility: PNM (NOTAM-D service available)
Attendance: MAY-OCT SAT-SUN 0800-1700
Wind indicator: lighted
Segmented circle: no
Lights: SS-SR
Beacon: white-green (lighted land airport)
Operates sunset to sunrise.

Airport Communications

CTAF/UNICOM: 122.8
GRAND FORKS APPROACH: 118.1
GRAND FORKS DEPARTURE: 118.1
BASIC RADAR: 118.1
  • APCH/DEP SVC PRVDD BY MINNEAPOLIS ARTCC (ZMP) ON FREQ 132.15/269.6 (GRAND FORKS RCAG) WHEN GRAND FORKS (RDR) APCH CTL CLSD.

Nearby radio navigation aids

VOR radial/distance  VOR name  Freq  Var
TVFr281/22.3THIEF RIVER FALLS VOR/DME108.4008E
GFKr044/23.7GRAND FORKS VOR/DME114.3009E

 
NDB name  Hdg/Dist  Freq  Var  ID
CROOKSTON347/21.440003ECKN -.-. -.- -.

Airport Services

Parking: hangars and tiedowns

Runway Information

Runway 12/30

Dimensions: 3199 x 75 ft. / 975 x 23 m
Surface: asphalt, in good condition
Weight bearing capacity: 
Single wheel: 26.0
Runway edge lights: medium intensity
RUNWAY 12  RUNWAY 30
Latitude: 48-11.624120N48-11.282633N
Longitude: 096-42.938475W096-42.340022W
Elevation: 887.2 ft.885.4 ft.
Gradient: 0.1%0.1%
Traffic pattern: leftleft
Runway heading: 125 magnetic, 130 true305 magnetic, 310 true
Displaced threshold: 190 ft.no
Declared distances: TORA:3199 TODA:3199 ASDA:3199 LDA:3009TORA:3199 TODA:3199 ASDA:3199 LDA:3199
Markings: nonprecision, in fair conditionnonprecision, in fair condition
Touchdown point: yes, no lightsyes, no lights
Obstructions: 17 ft. road, 512 ft. from runway, 265 ft. left of centerline, 18:1 slope to clear73 ft. trees, 1117 ft. from runway, 363 ft. left of centerline, 12:1 slope to clear

Runway 4/22

Dimensions: 2578 x 200 ft. / 786 x 61 m
Surface: turf, in good condition
Runway edge markings: RY 04/22 MARKED WITH YELLOW CONES.
Operational restrictions: RY 04/22 NOT PLOWED WINTER MONTHS.
RUNWAY 4  RUNWAY 22
Latitude: 48-11.348302N48-11.632635N
Longitude: 096-42.962122W096-42.491685W
Elevation: 886.2 ft.884.9 ft.
Gradient: 0.1%0.1%
Traffic pattern: leftleft
Runway heading: 043 magnetic, 048 true223 magnetic, 228 true
Touchdown point: yes, no lightsyes, no lights

Airport Ownership and Management from official FAA records

Ownership: Publicly-owned
Owner: CITY OF WARREN
120 E BRIDGE AVE
WARREN, MN 56762
Phone 218-745-5343
Manager: AARON PETERSON
120 E. BRIDGE AVE.
WARREN, MN 56762
Phone (218) 201-0652
USE TEXT MSGG WHEN CTCG ARPT MGR.

Airport Operational Statistics

Aircraft based on the field: 8
Single engine airplanes: 7
Multi engine airplanes: 1
    
Aircraft operations: avg 52/day *
53% transient general aviation
47% local general aviation
* for 12-month period ending 30 June 2018

Additional Remarks

DEER & GEESE ON & INVOF ARPT.
TOWER 4 'WNW', 1248 FT MSL (400 FT AGL).

Instrument Procedures

NOTE: All procedures below are presented as PDF files. If you need a reader for these files, you should download the free Adobe Reader.

NOT FOR NAVIGATION. Please procure official charts for flight.
FAA instrument procedures published for use from 6 December 2018 at 0901Z to 3 January 2019 at 0900Z.

 
IAPs - Instrument Approach Procedures
RNAV (GPS) RWY 30   download (152KB)
NOTE: Special Take-Off Minimums/Departure Procedures apply   download (223KB)

Other nearby airports with instrument procedures:

KCKN - Crookston Municipal Airport-Kirkwood Field (21 nm S)
KTVF - Thief River Falls Regional Airport (22 nm E)
KGFK - Grand Forks International Airport (24 nm SW)
KGAF - Hutson Field Airport (29 nm NW)
KRDR - Grand Forks Air Force Base (31 nm SW)
 
Loc | Ops | Rwys | IFR | FBO | Links
Com | Nav | Svcs | Stats | Notes


 
Area around D37 (Warren Municipal Airport)
 
Road maps at: MapQuest Bing Google
 
Aerial photo
WARNING: Photo may not be current or correct
Aerial photo of D37 (Warren Municipal Airport)
Photo taken 10-Jun-2015
looking northwest.

Do you have a better or more recent aerial photo of Warren Municipal Airport that you would like to share? If so, please send us your photo.

 
Sectional chart

 
Airport distance calculator
Flying to Warren Municipal Airport? Find the distance to fly.

From to D37

Sunrise and sunset
Times for 14-Dec-2018
 Local
(UTC-6)
 Zulu
(UTC)
Morning civil twilight07:3513:35
Sunrise08:1114:11
Sunset16:3222:32
Evening civil twilight17:0923:09

Current date and time
Zulu (UTC)  14-Dec-2018 18:37:03
Local (UTC-6)  14-Dec-2018 12:37:03
 
METAR
KCKN 
21nm S 
141815Z AUTO 19008KT 10SM CLR M04/M07 A3009 RMK AO2
KTVF 
23nm E 
141756Z AUTO 21007KT 10SM CLR M02/M06 A3007 RMK AO2 SLP202 T10221061 11022 21056 51016 FZRANO
KGFK 
24nm SW 
141753Z 18004KT 10SM BKN250 01/M04 A3006 RMK AO2 SLP193 4/002 933002 T00061044 10006 21094 51013
KGAF 
29nm NW 
141815Z AUTO 25006KT 10SM CLR 03/M03 A3005 RMK AO2 PWINO
KRDR 
31nm SW 
141756Z 29007KT 10SM FEW250 05/M03 A3005 RMK AO2A SLP190 T00461027 10046 21002 50014 $
KHCO 
35nm N 
141815Z AUTO 19006KT 10SM CLR M03/M05 A3003 RMK AO2
TAF
KTVF 
23nm E 
141724Z 1418/1518 22007KT P6SM FEW250 FM150200 19008KT P6SM FEW250
KGFK 
24nm SW 
141724Z 1418/1518 21005KT P6SM FEW250 FM142100 18007KT P6SM FEW250
NOTAMs
Click for the latest NOTAMs
NOTAMs are issued by the DoD/FAA and will open in a separate window not controlled by AirNav.

 

 
 

Would you like to see your business listed on this page?

 If your business provides an interesting product or service to pilots, flight crews, aircraft, or users of the Warren Municipal Airport, you should consider listing it here.  To start the listing process, click on the button below
 
Add a business
 

Other Pages about Warren Municipal Airport

Update a link
 
Copyright © AirNav, LLC. All rights reserved. Privacy Policy  Contact